Regional Weather Roundup
Issued by NWS

Home | Current Version | Previous Version | Graphics & Text | Print | Product List | Glossary Off
Versions: 1 2 3 4 5 6 7 8 9 10 11 12 13 14 15 16 17 18 19 20 21 22 23 24 25 26 27 28 29 30 31 32 33 34 35 36 37 38 39 40 41 42 43 44 45 46 47 48 49 50

000
ASUS43 KMKX 301021
RWRWI

WISCONSIN REGIONAL WEATHER ROUNDUP
NATIONAL WEATHER SERVICE MILWAUKEE/SULLIVAN WI
500 AM CDT THU MAR 30 2017

NOTE: "FAIR" INDICATES FEW OR NO CLOUDS BELOW 12,000 FEET WITH NO
SIGNIFICANT WEATHER AND/OR OBSTRUCTIONS TO VISIBILITY.

WIZ001-002-006>008-014>016-023>028-301100-
NORTHWEST WISCONSIN

CITY           SKY/WX    TMP DP  RH WIND       PRES   REMARKS
SUPERIOR ARPT  CLOUDY    33  32  95 NE8       30.09F WCI  27
ASHLAND        CLOUDY    31  29  92 CALM      30.09F
HAYWARD        CLOUDY    34  28  79 NE6       30.04F WCI  29
SIREN          CLOUDY    34  29  84 NE8       30.03F WCI  27
CUMBERLAND     CLOUDY    36  30  80 E6        30.01F WCI  31
RICE LAKE      CLOUDY    38  30  73 CALM      30.02F
CHETEK         CLOUDY    37  31  78 CALM      30.01F
LADYSMITH      CLOUDY    38  29  71 NE7       30.03F WCI  32
EAU CLAIRE     CLOUDY    37  33  85 E13       29.97F WCI  29
MENOMONIE      CLOUDY    37  34  88 NE8       29.98F WCI  31
NEW RICHMOND   CLOUDY    38  33  81 NE9       29.99F WCI  32
OSCEOLA        CLOUDY    39  34  81 E7        30.03F WCI  34
$$

WIZ003>005-009-010-017-018-301100-
NORTH CENTRAL WISCONSIN

CITY           SKY/WX    TMP DP  RH WIND       PRES   REMARKS
MANITOWISH WTR CLOUDY    33  24  69 E3        30.05S
ARBOR VITAE    CLOUDY    37  27  69 E5        30.03F WCI  33
WOODRUFF       CLOUDY    37  27  69 E5        30.03F WCI  33
RHINELANDER    CLOUDY    35  25  66 E6        30.04F WCI  30
EAGLE RIVER    CLOUDY    32  24  71 E6        30.05F WCI  27
LAND O LAKES   CLOUDY    33  25  73 E5        30.07F WCI  28
PHILLIPS       CLOUDY    34  26  72 NE5       30.02F WCI  30
TOMAHAWK       CLOUDY    33  26  74 E3        30.04F
MEDFORD        LGT SNOW  32  30  93 NE10      29.99F WCI  24
MERRILL        LGT SNOW  33  31  91 E6        30.04F WCI  28
$$

WIZ029-030-035-036-043>047-301100-
CENTRAL WISCONSIN

CITY           SKY/WX    TMP DP  RH WIND       PRES   REMARKS
WAUSAU         LGT SNOW  32  31  96 E10       30.00F FOG     WCI  24
MOSINEE        FLURRIES  32  32 100 NE14      30.02F WCI  22
MARSHFIELD     CLOUDY    34  32  92 E15       29.97F WCI  24
STEVENS POINT  LGT RAIN  32  32 100 NE12      30.01F WCI  23
WAUPACA        DRIZZLE   37  34  92 NE8       30.02S WCI  30
WAUTOMA        LGT RAIN  35  34  96 NE14      29.98F WCI  26
WISC RAPIDS    LGT RAIN  35  35 100 E13       29.99F WCI  26
CAMP DOUGLAS   CLOUDY    36  36 100 NE15      29.92F WCI  26
$$

WIZ011>013-019>022-031-037>040-048>050-301100-
NORTHEAST WISCONSIN

CITY           SKY/WX    TMP DP  RH WIND       PRES   REMARKS
ANTIGO         LGT SNOW  32  30  94 E7        30.04S WCI  25
SHAWANO        FLURRIES  35  32  88 NE8       30.06F WCI  29
OCONTO         CLOUDY    36  33  88 E5        30.08F WCI  32
STURGEON BAY   CLOUDY    36  29  75 E6        30.12R WCI  31
GREEN BAY      CLOUDY    36  36 100 NE8       30.06F WCI  30
MANITOWOC      LGT RAIN  36  30  80 E9        30.04F WCI  29
APPLETON       CLOUDY    34  32  93 E10       30.00F WCI  26
CLINTONVILLE   FLURRIES  32  32 100 NE9       30.03F WCI  24
OSHKOSH        LGT RAIN  36  32  85 E14       29.99F WCI  27
$$

WIZ032>034-041-042-053>061-301100-
SOUTHWEST WISCONSIN

CITY           SKY/WX    TMP DP  RH WIND       PRES   REMARKS
LA CROSSE      LGT RAIN  39  35  86 NE12G18   29.91F WCI  32
SPARTA         LGT RAIN  36  35  97 E12       29.93F WCI  27
VIROQUA        CLOUDY    37  36  97 E18G25    29.85F WCI  26
BOSCOBEL       CLOUDY    40  32  73 NE13G20   29.85F WCI  32
PRAIRIE DU CHI LGT RAIN  38  37  97 NE6G17    29.85F WCI  34
PLATTEVILLE    CLOUDY    40  40  99 E24G32    29.80F WCI  30
$$

WIZ056-057-062-063-064-067-068-301100-
SOUTH CENTRAL WISCONSIN

CITY           SKY/WX    TMP DP  RH WIND       PRES   REMARKS
REEDSBURG      CLOUDY    37  37 100 NE12      29.90F WCI  29
BARABOO/DELLS  CLOUDY    37  36  96 E9G16     29.91F WCI  30
LONE ROCK      CLOUDY    40  36  86 E22       29.86F WCI  30
MINERAL POINT  CLOUDY    39  39 100 E21G31    29.81F WCI  29
MADISON        LGT RAIN  38  36  92 E16       29.89F WCI  29
MIDDLETON      CLOUDY    40  40 100 E13       29.89F WCI  32
WATERTOWN      LGT RAIN  37  37 100 E20G26    29.90F WCI  26
MONROE         LGT RAIN  37  36  93 E20G25    29.84F WCI  27
JANESVILLE     LGT RAIN  39  39 100 E21G26    29.86F WCI  29
$$

WIZ051-052-058>065-066-070>072-301100-
SOUTHEAST WISCONSIN

CITY           SKY/WX    TMP DP  RH WIND       PRES   REMARKS
MILWAUKEE      RAIN      37  34  89 E20       29.94F FOG     WCI  27
WAUKESHA       LGT RAIN  34  32  93 E20       29.92F WCI  22
MILWAUKEE/TIMM RAIN      34  32  93 E12G17    29.96F WCI  25
RACINE         LGT RAIN  38  35  89 E17G28    29.94F WCI  28
KENOSHA        RAIN      38  36  92 E22G30    29.91F FOG     WCI  27
FOND DU LAC    LGT RAIN  36  30  79 E16G23    29.98F WCI  26
SHEBOYGAN      LGT RAIN  35  30  82 E13       30.01F WCI  26
WEST BEND      RAIN      34  34 100 E13       29.97F WCI  25
JUNEAU         RAIN      36  34  93 E14G21    29.92F WCI  27
$$

LSZ147-162-301100-
LAKE SUPERIOR

STATION/POSITION TIME  TEMP    WIND        PRES    WAVE
                       AIR SEA DIR/SP/G            HT/PER
                 (UTC) (F)     (DEG/KT/KT) (MB)    (FT/S)
DEVILS ISLAND    1000   34      70/  8/  9 1019.9S
PORT WING        0940   34      60/  3/  5 1019.3S
SAXON HARBOR     0940   32     220/  1/  3 1018.6F
$$

LMZ867-665-643>646-301100-
LAKE MICHIGAN

STATION/POSITION TIME  TEMP    WIND        PRES    WAVE
                       AIR SEA DIR/SP/G            HT/PER
                 (UTC) (F)     (DEG/KT/KT) (MB)    (FT/S)
CHAMBERS ISLAND  0940   36      60/ 10/ 12 1019.0F
NORTHPORT PIER   0940   35      90/  9/ 12 1020.0F
SISTER BAY       0851   36     120/ 11/ 15   N/A
KEWAUNEE LAKESHO 1000   36      90/  7/ 11 1017.4
SHEBOYGAN LAKESH 1000   36      70/ 21/ 24 1016.5F
PORT WASHINGTON  0930   38      70/ 13/ 16 1016.9F
MILWAUKEE LAKESH 1000   36      60/ 14/ 16   N/A
KENOSHA   LAKESH 1000   38      80/ 19/ 26 1013.2
$$

TC  - TEMPERATURE IN CELSIUS
VSB - VISIBILITY IN STATUTE MILES
WCI - WIND CHILL INDEX
HX  - HEAT INDEX





USA.gov is the U.S. government's official web portal to all federal, state and local government web resources and services.